Orbital Elements at Epoch 2459200.5 (2020-Dec-17.0) TDB
Reference: JPL 28 (heliocentric ecliptic J2000)
Element | Value | Uncertainty (1-sigma) | Units |
e | .1886760120716211 | 3.1918e-08 | |
a | 2.253130127908006 | 7.5392e-09 | au |
q | 1.828018520695902 | 7.354e-08 | au |
i | 1.330866231762552 | 3.0258e-06 | deg |
node | 263.1078091295168 | 0.00016897 | deg |
peri | 46.52309470194307 | 0.00016921 | deg |
M | 333.9349151357767 | 1.0455e-05 | deg |
tp | 2459289.940554204523 (2021-Mar-16.44055420) | 3.6047e-05 | TDB |
period | 1235.315353138317 3.38 | 6.2002e-06 1.698e-08 | d yr |
n | .2914235616722649 | 1.4627e-09 | deg/d |
Q | 2.67824173512011 | 8.9617e-09 | au |
|
| | Orbit Determination Parameters
Additional Information
|